Flight Track Log - Related Links

Times and Time Zones

All times are in EDT time to prevent confusion due to time zone crossing. See the CES2376 flight status page for this flight to view local times or setup timezone preferences in your user account.

Time Position Orientation Groundspeed Altitude Reporting Facility
EDT Latitude Longitude Course Direction KTS MPH feet Rate Location/Type
Sun 04:52:00 AM 36.2437 96.5830 96° East  Level Estimated
Sun 04:53:00 AM 36.2306 96.7209 97° East  Level Estimated
Sun 04:54:00 AM 36.2173 96.8588 97° East  Level Estimated
Sun 04:55:00 AM 36.2038 96.9966 97° East  Level Estimated
Sun 04:56:00 AM 36.1902 97.1344 97° East  Level Estimated
Sun 04:57:00 AM 36.1765 97.2721 97° East  Level Estimated
Sun 04:58:00 AM 36.1626 97.4098 97° East  Level Estimated
Sun 04:59:00 AM 36.1485 97.5474 97° East  Level Estimated
Sun 05:00:00 AM 36.1342 97.6850 97° East  Level Estimated
Sun 05:01:00 AM 36.1198 97.8225 97° East  Level Estimated
Sun 05:02:00 AM 36.1053 97.9600 97° East  Level Estimated
Sun 05:03:00 AM 36.0906 98.0975 98° East  Level Estimated
Sun 05:04:00 AM 36.0757 98.2348 98° East  Level Estimated
Sun 05:05:00 AM 36.0607 98.3721 98° East  Level Estimated
Sun 05:06:00 AM 36.0455 98.5094 98° East  Level Estimated
Sun 05:07:00 AM 36.0302 98.6466 98° East  Level Estimated
Sun 05:08:00 AM 36.0147 98.7838 98° East  Level Estimated
Sun 05:09:00 AM 35.9990 98.9209 98° East  Level Estimated
Sun 05:10:00 AM 35.9832 99.0580 98° East  Level Estimated
Sun 05:11:00 AM 35.9673 99.1949 98° East  Level Estimated
Sun 05:12:00 AM 35.9511 99.3319 98° East  Level Estimated
Sun 05:13:00 AM 35.9349 99.4688 98° East  Level Estimated
Sun 05:14:00 AM 35.9184 99.6056 98° East  Level Estimated
Sun 05:15:00 AM 35.9019 99.7424 98° East  Level Estimated
Sun 05:16:00 AM 35.8851 99.8791 99° East  Level Estimated
Sun 05:17:00 AM 35.8682 100.0158 99° East  Level Estimated
Sun 05:18:00 AM 35.8512 100.1524 99° East  Level Estimated
Sun 05:19:00 AM 35.8340 100.2889 99° East  Level Estimated
Sun 05:20:00 AM 35.8166 100.4254 99° East  Level Estimated
Sun 05:21:00 AM 35.7991 100.5618 99° East  Level Estimated
Sun 05:22:00 AM 35.7815 100.6982 99° East  Level Estimated
Sun 05:23:00 AM 35.7636 100.8345 99° East  Level Estimated
Sun 05:24:00 AM 35.7457 100.9707 99° East  Level Estimated
Sun 05:25:00 AM 35.7276 101.1069 99° East  Level Estimated
Sun 05:26:00 AM 35.7093 101.2430 99° East  Level Estimated
Sun 05:27:00 AM 35.6908 101.3790 99° East  Level Estimated
Sun 05:28:00 AM 35.6723 101.5150 100° East  Level Estimated
Sun 05:29:00 AM 35.6535 101.6509 100° East  Level Estimated
Sun 05:30:00 AM 35.6346 101.7868 100° East  Level Estimated
Sun 05:31:00 AM 35.6156 101.9226 100° East  Level Estimated
Sun 05:32:00 AM 35.5964 102.0583 100° East  Level Estimated
Sun 05:33:00 AM 35.5770 102.1940 100° East  Level Estimated
Sun 05:34:00 AM 35.5575 102.3296 100° East  Level Estimated
Sun 05:35:00 AM 35.5379 102.4651 100° East  Level Estimated
Sun 05:36:00 AM 35.5181 102.6006 100° East  Level Estimated
Sun 05:37:00 AM 35.4981 102.7360 100° East  Level Estimated
Sun 05:38:00 AM 35.4781 102.8713 100° East  Level Estimated
Sun 05:39:00 AM 35.4578 103.0066 100° East  Level Estimated
Sun 05:40:00 AM 35.4374 103.1418 100° East  Level Estimated
Sun 05:41:00 AM 35.4168 103.2769 101° East  Level Estimated
Sun 05:42:00 AM 35.3961 103.4120 101° East  Level Estimated
Sun 05:43:00 AM 35.3753 103.5470 101° East  Level Estimated
Sun 05:44:00 AM 35.3542 103.6819 101° East  Level Estimated
Sun 05:45:00 AM 35.3331 103.8168 101° East  Level Estimated
Sun 05:46:00 AM 35.3118 103.9515 101° East  Level Estimated
Sun 05:47:00 AM 35.2903 104.0863 101° East  Level Estimated
Sun 05:48:00 AM 35.2687 104.2209 101° East  Level Estimated
Sun 05:49:00 AM 35.2470 104.3555 101° East  Level Estimated
Sun 05:50:00 AM 35.2251 104.4899 101° East  Level Estimated
Sun 05:51:00 AM 35.2030 104.6244 101° East  Level Estimated
Sun 05:52:00 AM 35.1808 104.7587 101° East  Level Estimated
Sun 05:53:00 AM 35.1585 104.8930 101° East  Level Estimated
Sun 05:54:00 AM 35.1360 105.0272 102° East  Level Estimated
Sun 05:55:00 AM 35.1133 105.1613 102° East  Level Estimated
Sun 05:56:00 AM 35.0905 105.2953 102° East  Level Estimated
Sun 05:57:00 AM 35.0676 105.4293 102° East  Level Estimated
Sun 05:58:00 AM 35.0445 105.5632 102° East  Level Estimated
Sun 05:59:00 AM 35.0213 105.6970 102° East  Level Estimated
Sun 06:00:00 AM 34.9979 105.8308 102° East  Level Estimated
Sun 06:01:00 AM 34.9744 105.9644 102° East  Level Estimated
Sun 06:02:00 AM 34.9507 106.0980 102° East  Level Estimated
Sun 06:03:00 AM 34.9269 106.2315 102° East  Level Estimated
Sun 06:04:00 AM 34.9029 106.3650 102° East  Level Estimated
Sun 06:05:00 AM 34.8788 106.4983 102° East  Level Estimated
Sun 06:06:00 AM 34.8545 106.6316 102° East  Level Estimated
Sun 06:07:00 AM 34.8301 106.7648 103° East  Level Estimated
Sun 06:08:00 AM 34.8056 106.8979 103° East  Level Estimated
Sun 06:09:00 AM 34.7809 107.0310 103° East  Level Estimated
Sun 06:10:00 AM 34.7561 107.1639 103° East  Level Estimated
Sun 06:11:00 AM 34.7311 107.2968 103° East  Level Estimated
Sun 06:12:00 AM 34.7059 107.4296 103° East  Level Estimated
Sun 06:13:00 AM 34.6807 107.5623 103° East  Level Estimated
Sun 06:14:00 AM 34.6537 107.7032 103° East  Level Estimated
Sun 06:15:00 AM 34.6265 107.8439 103° East  Level Estimated
Sun 06:16:00 AM 34.5992 107.9846 103° East  Level Estimated
Sun 06:17:00 AM 34.5718 108.1252 103° East  Level Estimated
Sun 06:18:00 AM 34.5441 108.2656 103° East  Level Estimated
Sun 06:19:00 AM 34.5163 108.4060 103° East  Level Estimated
Sun 06:20:00 AM 34.4883 108.5463 104° East  Level Estimated
Sun 06:21:00 AM 34.4602 108.6865 104° East  Level Estimated
Sun 06:22:00 AM 34.4471 108.7516 104° East  Level Estimated
Sun 06:23:00 AM 34.4471 108.7516 121° Southeast  Level Estimated
Sun 06:24:00 AM 34.4471 108.7516 121° Southeast  Level Estimated
Sun 06:25:00 AM 34.4471 108.7516 121° Southeast  Level Estimated
Sun 06:26:00 AM 34.4471 108.7516 121° Southeast  Level Estimated
Sun 06:27:00 AM 34.4471 108.7516 121° Southeast  Level Estimated
Sun 06:28:00 AM 34.4471 108.7516 121° Southeast  Level Estimated
Sun 06:29:00 AM 34.4471 108.7516 121° Southeast  Level Estimated
Sun 06:30:00 AM 34.4471 108.7516 121° Southeast  Level Estimated
Sun 06:31:00 AM 34.4471 108.7516 121° Southeast  Level Estimated
Sun 06:32:00 AM 34.4471 108.7516 121° Southeast  Level Estimated
Sun 06:33:00 AM 34.4471 108.7516 121° Southeast  Level Estimated

Login

Don't have an account? Register now (free) for customized features, flight alerts, and more!